OpenBCM V1.08-5-g2f4a (Linux)

Packet Radio Mailbox

IZ3LSV

[San Dona' di P. JN]

 Login: GUEST





  
I0OJJ  > KEPS     09.03.25 06:04l 323 Lines 15446 Bytes #61 (0) @ AMSAT
BID : ORB25068.1
Read: GUEST
Subj: 2Line Orbital Elements 25068.AMSAT
Path: IZ3LSV<DB0ERF<DK0WUE<PD0LPM<PI8ZTM<I0OJJ
Sent: 250309/0345z @:I0OJJ.ITA.EU [Rome] obcm1.08-6-g5b69
From: I0OJJ @ I0OJJ.ITA.EU (Gustavo)
To:   KEPS @ AMSAT
X-Info: This message was generated automatically


QST de W1STR

AMSAT Orbital Elements for Amateur Satellites in TLE Format
From Orbital Analysis Office
New England Sci-Tech STEM Education Center
Natick, MA March 09, 2025
To all radio amateurs


These element sets describe the orbits of various satellites 
in use by the amateur radio community. For details see:
www.amsat.org/keplerian-elements-formats/

A daily update of element sets is available at:
www.amsat.org/tle/daily-bulletin.txt
or without bulletin text:
www.amsat.org/tle/dailytle.txt


AO-07
1 07530U 74089B   25067.84260692 -.00000013  00000-0  21219-3 0  9993
2 07530 101.9950  71.1147 0011903 299.8433 131.8623 12.53686899302449
UO-11
1 14781U 84021B   25067.47228954  .00002723  00000-0  29626-3 0  9999
2 14781  97.7434  35.7732 0006152 289.7267  70.3287 14.88851937208785
AO-27
1 22825U 93061C   25067.76786941  .00000207  00000-0  96336-4 0  9996
2 22825  98.7492 128.8136 0008852  31.9193 328.2524 14.30743867640715
FO-29
1 24278U 96046B   25067.74062337 -.00000027  00000-0  10290-4 0  9996
2 24278  98.5852 333.8139 0349197 222.9702 134.3676 13.53239515410461
NOAA-15
1 25338U 98030A   25067.76265328  .00000309  00000-0  14502-3 0  9997
2 25338  98.5461  95.0856 0009116 270.5470  89.4666 14.26902770395162
GO-32
1 25397U 98043D   25067.47076242  .00000209  00000-0  11055-3 0  9998
2 25397  98.9611  44.6935 0002306 104.0996 256.0439 14.24267382385254
ISS
1 25544U 98067A   25067.53772492  .00012006  00000-0  21936-3 0  9992
2 25544  51.6354  85.5486 0006380 357.9845   2.1117 15.49812693499552
NO-44
1 26931U 01043C   25067.24582741  .00000420  00000-0  18858-3 0  9991
2 26931  67.0528   9.1425 0005754 266.1962  93.8482 14.31645599223744
SO-50
1 27607U 02058C   25067.25919415  .00002059  00000-0  27851-3 0  9995
2 27607  64.5536 128.5018 0045471 356.9529   3.1292 14.81087159195408
CO-55
1 27844U 03031E   25067.01346696  .00000627  00000-0  29279-3 0  9994
2 27844  98.6795  76.4868 0010876  98.6178 261.6233 14.23857681125322
CO-57
1 27848U 03031J   25066.98896910  .00000536  00000-0  25615-3 0  9991
2 27848  98.6825  76.5381 0010686 113.7979 246.4321 14.23212599125050
RS-22
1 27939U 03042A   25067.77111800  .00002451  00000-0  39957-3 0  9992
2 27939  98.3176 235.0460 0010682 306.5713 178.6253 14.71891930147173
NOAA-18
1 28654U 05018A   25067.75625681  .00000313  00000-0  18964-3 0  9997
2 28654  98.8474 148.2653 0014559  37.0873 323.1303 14.13535411 20632
CO-58
1 28895U 05043F   25067.17744497  .00003336  00000-0  55947-3 0  9995
2 28895  98.2327 210.4765 0014155 240.5890 119.3903 14.70345794 33213
CO-65
1 32785U 08021C   25067.51238194  .00008173  00000-0  61585-3 0  9996
2 32785  97.7769  38.1418 0011244 153.6923 206.4875 15.02696344915162
AAUSAT2
1 32788U 08021F   25067.48317434  .00113768  00000-0  17760-2 0  9992
2 32788  97.6064  60.3975 0004067  89.1864 270.9854 15.53410990918870
CO-66
1 32791U 08021J   25067.51004423  .00016291  00000-0  87662-3 0  9993
2 32791  97.7209  45.7430 0006899 113.1691 247.0268 15.14911210916465
RS-30
1 32953U 08025A   25067.77033220  .00000017  00000-0  49863-4 0  9993
2 32953  82.4991 284.9171 0018667 247.7433 112.1668 12.43159707762006
NOAA-19
1 33591U 09005A   25067.81830346  .00000300  00000-0  18421-3 0  9990
2 33591  99.0087 131.9642 0012799 264.7705  95.2006 14.13303238829000
SRMSAT
1 37841U 11058D   25067.12736315  .00000580  00000-0  17189-3 0  9998
2 37841  19.9734   0.0516 0011889 117.1813 271.0438 14.11378145691892
ZACUBE-1
1 39417U 13066B   25067.41527176  .00008751  00000-0  78813-3 0  9994
2 39417  97.7688  25.0730 0045734   6.1593 354.0180 14.95027848610988
Delfi-N3xt
1 39428U 13066N   25067.73077265  .00013707  00000-0  14616-2 0  9997
2 39428  97.8366 346.5451 0086578 307.0963  52.2361 14.86220954605457
GOMX-1
1 39430U 13066Q   25067.74853963  .00003451  00000-0  54495-3 0  9993
2 39430  97.6974 292.0726 0134907 129.0564 232.2737 14.66997977601796
LO-74
1 39440U 13066AA  25067.83050880  .00006331  00000-0  66082-3 0  9996
2 39440  97.8404  13.1645 0065318 124.7915 235.9472 14.88484139608833
AO-73
1 39444U 13066AE  25067.44146107  .00012563  00000-0  99790-3 0  9991
2 39444  97.7562  29.2598 0041086 344.0656  15.9271 14.99936795610200
DTUSAT-2
1 40030U 14033W   25066.95681418  .00010908  00000-0  75185-3 0  9996
2 40030  98.0461  34.4424 0010833  31.0203 329.1660 15.05977772582295
EO-80
1 40032U 14033Y   25067.84572179  .00013327  00000-0  91467-3 0  9999
2 40032  98.0348  35.1507 0007520 328.1968  31.8803 15.06105279582920
LILACSAT-2
1 40908U 15049K   25067.80365562  .00016898  00000-0  48787-3 0  9994
2 40908  97.5157  86.0616 0011716 127.0181 233.2136 15.35679139523975
IO-86
1 40931U 15052B   25038.81889873  .00001817  00000-0  15548-3 0  9993
2 40931   6.0001 108.1159 0012838 187.7041 172.2889 14.78568669506492
Horyu-4
1 41340U 16012D   25067.25540825  .00023989  00000-0  77438-3 0  9996
2 41340  30.9998  37.0709 0007513 183.9065 176.1521 15.30897178498447
Lapan A3
1 41603U 16040E   25067.79071720  .00005573  00000-0  20144-3 0  9992
2 41603  97.1403  76.0880 0009538 234.2527 125.7827 15.28797041483606
CAS-2T
1 41847U 16066G   25067.78796746  .00002798  00000-0  40435-3 0  9992
2 41847  98.4277 143.0505 0348685  99.1568 264.9236 14.43092777437632
CAS-4B
1 42759U 17034B   25067.70686041  .00060165  00000-0  10395-2 0  9992
2 42759  43.0103 150.1867 0017257 357.3352   2.7414 15.49980303428125
CAS-4A
1 42761U 17034D   25067.66490655  .00067227  00000-0  11349-2 0  9990
2 42761  43.0140 148.2884 0018390   3.1489 356.9484 15.50567435428133
TechnoSat
1 42829U 17042E   25067.46590585  .00005345  00000-0  42664-3 0  9993
2 42829  97.3899 240.6583 0012132 237.0669 122.9390 15.00618675416750
AO-91
1 43017U 17073E   25067.69902538  .00012324  00000-0  65329-3 0  9995
2 43017  97.5444 300.8762 0182052 122.1825 239.7202 15.02274081395254
S-Net D
1 43186U 18014G   25067.26738820  .00007325  00000-0  45153-3 0  9990
2 43186  97.5709 331.1778 0009304 173.6696 186.4653 15.10216838388282
S-Net B
1 43187U 18014H   25067.27165951  .00007608  00000-0  46889-3 0  9992
2 43187  97.5712 331.1490 0010191 170.1007 190.0425 15.10200213388280
S-Net A
1 43188U 18014J   25067.73187819  .00008646  00000-0  53183-3 0  9999
2 43188  97.5723 331.7423 0010074 168.8824 191.2630 15.10230247388355
S-Net C
1 43189U 18014K   25067.27384852  .00007684  00000-0  47341-3 0  9995
2 43189  97.5737 331.2877 0011802 165.1859 194.9718 15.10196126386832
Ten-Koh
1 43677U 18084G   25067.55383585  .00006025  00000-0  49293-3 0  9993
2 43677  98.0937 236.1006 0010034 213.0201 147.0396 14.99697226346299
PO-101
1 43678U 18084H   25067.80914799  .00004674  00000-0  40593-3 0  9991
2 43678  98.0951 240.4635 0008076 229.7738 130.2777 14.97520511346493
QO-100
1 43700U 18090A   25067.82875653  .00000128  00000-0  00000+0 0  9996
2 43700   0.0164 158.2110 0001282 201.5389 131.1245  1.00271550 23256
MinXSS-2
1 43758U 18099A   25067.74149828  .00022410  00000-0  10010-2 0  9990
2 43758  97.5140 133.6914 0014023 122.9240 237.3346 15.21270821342839
AO-95
1 43770U 18099N   25067.72005879  .00014625  00000-0  79618-3 0  9998
2 43770  97.5054 126.9314 0011986 169.7903 190.3575 15.14475649342486
RANGE-A
1 43773U 18099R   25067.73437759  .00007705  00000-0  50886-3 0  9995
2 43773  97.4632 118.8443 0012838 145.1161 215.0911 15.07621578342221
MOVE-II
1 43780U 18099Y   25067.43478263  .00072677  00000-0  14906-2 0  9997
2 43780  97.4784 138.2668 0004141 141.9689 218.1853 15.45783378343284
SNUSat 2
1 43782U 18099AA  25067.19682417  .00009325  00000-0  54104-3 0  9995
2 43782  97.4741 123.8972 0014067 116.0198 244.2483 15.12281173342371
SnugLite
1 43784U 18099AC  25067.10885821  .00012956  00000-0  70116-3 0  9997
2 43784  97.4554 123.2109 0004969 119.1083 241.0647 15.14762633342473
ITASat 1
1 43786U 18099AE  25067.70392777  .00011242  00000-0  67533-3 0  9994
2 43786  97.4707 124.1561 0015703 163.0826 197.0931 15.10952637342420
EAGLET 1
1 43790U 18099AJ  25067.15419683  .00006490  00000-0  42840-3 0  9997
2 43790  97.4908 123.8466 0013463 145.3041 214.9068 15.07699432341988
ESEO
1 43792U 18099AL  25067.09039869  .00003787  00000-0  29310-3 0  9999
2 43792  97.4592 118.2480 0011713 118.0110 242.2301 15.01982904341788
CSIM
1 43793U 18099AM  25067.74170246  .00100330  00000-0  20188-2 0  9992
2 43793  97.4969 140.6235 0005701 110.8266 249.3594 15.46222086343170
JO-97
1 43803U 18099AX  25067.13389310  .00014279  00000-0  71524-3 0  9998
2 43803  97.4800 127.1846 0009288 112.3647 247.8572 15.17448066342587
Suomi 100
1 43804U 18099AY  25067.14412751  .00012672  00000-0  66964-3 0  9993
2 43804  97.4868 126.7228 0014576 112.9793 247.2978 15.15535739342536
ISAT
1 43879U 18111D   25067.80587668  .00027182  00000-0  11053-2 0  9993
2 43879  97.6016 340.4603 0010966 149.6050 210.5825 15.24455744337512
UWE-4
1 43880U 18111E   25067.24350080  .00018364  00000-0  81526-3 0  9994
2 43880  97.5950 338.9483 0013438 166.5575 193.6021 15.21533414339413
Sparrow
1 43881U 18111F   25067.26437649  .00022658  00000-0  89811-3 0  9990
2 43881  97.6140 342.4583 0007002 185.1523 174.9644 15.25384449339539
Prox-1
1 44339U 19036A   25067.01754414  .00016124  00000-0  22063-2 0  9997
2 44339  23.9989 315.1366 0007241  81.4224 278.7093 14.76863597304150
SONATE
1 44400U 19038Q   25067.00540998  .00080813  00000-0  89981-3 0  9996
2 44400  97.7080  83.7014 0007608 212.4193 147.6597 15.62555618314833
Taurus 1
1 44530U 19059C   25067.83555889  .00011628  00000-0  22479-2 0  9995
2 44530  98.5930 203.0262 0009190 314.7691  45.2761 14.63520978290367
